User: anonymous   Login
Location: Alfortville
(48.8058°N, 2.4204°E)
Time: 04:58:21
(UTC+00:00)
Language:

deb Chang Zheng 4 - Orbit

View from above orbital plane
View from above orbital plane
View from above satellite
View from above satellite

Ground track
Ground track

The orbit data is extracted from the following two-line orbital elements,

1 20847U 90081K   22017.55361674  .00007467  00000-0  81762-3 0  9999
2 20847  98.5683  43.2166 0016737  92.5701 267.7430 14.88014488654024
Epoch (UTC): 17 January 2022 13:17:12
Eccentricity: 0.0016737
inclination: 98.5683°
perigee height: 592 km
apogee height: 616 km
right ascension of ascending node: 43.2166°
argument of perigee: 92.5701°
revolutions per day: 14.88014488
mean anomaly at epoch: 267.7430°
orbit number at epoch: 65402

The dashed part of the orbit path shows where the satellite is in the earth's shadow,  

DLR